| time (UTC) | temp F | wind direction | speed MPH | gust MPH | rain 1hr in | rain 24hr in | rain mn in | humidity % | barometer mb |
| 20260831081509 | 60 | 210 | 5.0 | 0.0 | 0.00 | 0.00 | 0.00 | 85 | 1006.1 |
| 20260831080010 | 60 | 220 | 5.0 | 0.0 | 0.00 | 0.00 | 0.00 | 85 | 1006.1 |
| 20260831074510 | 63 | 220 | 5.0 | 0.0 | 0.00 | 0.00 | 0.00 | 74 | 1005.9 |
| 20260831073009 | 63 | 180 | 4.0 | 0.0 | 0.00 | 0.00 | 0.00 | 74 | 1005.9 |
| 20260831071509 | 64 | 130 | 2.0 | 0.0 | 0.00 | 0.00 | 0.00 | 71 | 1005.5 |
| 20260831070009 | 64 | 130 | 2.0 | 0.0 | 0.00 | 0.00 | 0.00 | 71 | 1005.5 |
| 20260831064509 | 62 | 130 | 2.0 | 0.0 | 0.00 | 0.00 | 0.00 | 78 | 1005.6 |
| 20260831063010 | 62 | 50 | 1.0 | 0.0 | 0.00 | 0.00 | 0.00 | 78 | 1005.6 |
| 20260831060009 | 62 | 140 | 3.0 | 0.0 | 0.00 | 0.00 | 0.00 | 73 | 1005.6 |
| 20260831054510 | 60 | 110 | 1.0 | 0.0 | 0.00 | 0.00 | 0.00 | 79 | 1005.9 |
| 20260831053010 | 60 | 110 | 1.0 | 0.0 | 0.00 | 0.00 | 0.00 | 79 | 1005.9 |
| 20260831051510 | 60 | 110 | 1.0 | 0.0 | 0.00 | 0.00 | 0.00 | 79 | 1005.6 |
| 20260831050009 | 60 | 140 | 3.0 | 0.0 | 0.00 | 0.00 | 0.00 | 79 | 1005.6 |
| 20260831044510 | 60 | 160 | 2.0 | 0.0 | 0.00 | 0.00 | 0.00 | 77 | 1006.1 |
| 20260831043009 | 60 | 160 | 2.0 | 0.0 | 0.00 | 0.00 | 0.00 | 77 | 1006.1 |
| 20260831041510 | 57 | 180 | 1.0 | 0.0 | 0.00 | 0.00 | 0.00 | 85 | 1006.3 |
| 20260831040010 | 57 | 180 | 1.0 | 0.0 | 0.00 | 0.00 | 0.00 | 85 | 1006.3 |
| 20260831034510 | 59 | 180 | 1.0 | 0.0 | 0.00 | 0.00 | 0.00 | 81 | 1006.3 |
| 20260831033009 | 59 | 170 | 1.0 | 0.0 | 0.00 | 0.00 | 0.00 | 81 | 1006.3 |
| 20260831031509 | 61 | 170 | 1.0 | 0.0 | 0.00 | 0.00 | 0.00 | 77 | 1006.4 |
| 20260831030009 | 61 | 190 | 3.0 | 0.0 | 0.00 | 0.00 | 0.00 | 77 | 1006.4 |
| 20260830204510 | 69 | 250 | 3.0 | 0.0 | 0.00 | 0.00 | 0.00 | 61 | 1007.2 |
| 20260830203009 | 69 | 260 | 2.0 | 0.0 | 0.00 | 0.00 | 0.00 | 61 | 1007.2 |
| 20260830201509 | 70 | 260 | 2.0 | 0.0 | 0.00 | 0.00 | 0.00 | 59 | 1007.0 |
| 20260830200009 | 70 | 270 | 4.0 | 0.0 | 0.00 | 0.00 | 0.00 | 59 | 1007.0 |
| 20260830194509 | 71 | 270 | 4.0 | 0.0 | 0.00 | 0.00 | 0.00 | 56 | 1006.9 |
| 20260830193010 | 71 | 260 | 5.0 | 0.0 | 0.00 | 0.00 | 0.00 | 56 | 1006.9 |
| 20260830191509 | 72 | 260 | 5.0 | 0.0 | 0.00 | 0.00 | 0.00 | 54 | 1006.7 |
| 20260830190010 | 72 | 260 | 5.0 | 0.0 | 0.00 | 0.00 | 0.00 | 54 | 1006.7 |
| 20260830184509 | 73 | 260 | 5.0 | 0.0 | 0.00 | 0.00 | 0.00 | 52 | 1006.3 |
| 20260830183009 | 73 | 270 | 8.0 | 0.0 | 0.00 | 0.00 | 0.00 | 52 | 1006.3 |
| 20260830181510 | 74 | 270 | 10.0 | 0.0 | 0.00 | 0.00 | 0.00 | 49 | 1006.1 |
| 20260830180010 | 74 | 270 | 10.0 | 0.0 | 0.00 | 0.00 | 0.00 | 49 | 1006.1 |
| 20260830174509 | 75 | 270 | 10.0 | 0.0 | 0.00 | 0.00 | 0.00 | 46 | 1005.8 |
| 20260830173009 | 75 | 270 | 13.0 | 0.0 | 0.00 | 0.00 | 0.00 | 46 | 1005.8 |
| 20260830171509 | 78 | 270 | 13.0 | 0.0 | 0.00 | 0.00 | 0.00 | 43 | 1005.5 |
| 20260830170010 | 78 | 270 | 10.0 | 0.0 | 0.00 | 0.00 | 0.00 | 43 | 1005.5 |
| 20260830164510 | 78 | 270 | 10.0 | 0.0 | 0.00 | 0.00 | 0.00 | 42 | 1005.3 |
| 20260830163009 | 78 | 280 | 10.0 | 0.0 | 0.00 | 0.00 | 0.00 | 42 | 1005.3 |
| 20260830161509 | 79 | 270 | 12.0 | 0.0 | 0.00 | 0.00 | 0.00 | 40 | 1005.1 |
| 20260830160009 | 79 | 270 | 12.0 | 0.0 | 0.00 | 0.00 | 0.00 | 40 | 1005.1 |
| 20260830154509 | 78 | 270 | 12.0 | 0.0 | 0.00 | 0.00 | 0.00 | 41 | 1005.1 |
| 20260830153010 | 78 | 280 | 10.0 | 0.0 | 0.00 | 0.00 | 0.00 | 41 | 1005.1 |
| 20260830151509 | 79 | 240 | 12.0 | 0.0 | 0.00 | 0.00 | 0.00 | 39 | 1004.9 |
| 20260830150010 | 79 | 240 | 12.0 | 0.0 | 0.00 | 0.00 | 0.00 | 39 | 1004.9 |
| 20260830144509 | 78 | 240 | 12.0 | 0.0 | 0.00 | 0.00 | 0.00 | 42 | 1004.9 |
| 20260830143010 | 78 | 240 | 11.0 | 0.0 | 0.00 | 0.00 | 0.00 | 42 | 1004.9 |
| 20260830141509 | 78 | 240 | 11.0 | 0.0 | 0.00 | 0.00 | 0.00 | 45 | 1004.8 |
| 20260830140009 | 78 | 230 | 13.0 | 0.0 | 0.00 | 0.00 | 0.00 | 45 | 1004.8 |
| 20260830134510 | 78 | 240 | 12.0 | 0.0 | 0.00 | 0.00 | 0.00 | 46 | 1004.7 |
| 20260830133009 | 78 | 240 | 12.0 | 0.0 | 0.00 | 0.00 | 0.00 | 46 | 1004.7 |
| 20260830131509 | 77 | 240 | 12.0 | 0.0 | 0.00 | 0.00 | 0.00 | 50 | 1004.6 |
| 20260830130009 | 77 | 230 | 10.0 | 0.0 | 0.00 | 0.00 | 0.00 | 50 | 1004.6 |
| 20260830124509 | 77 | 230 | 10.0 | 0.0 | 0.00 | 0.00 | 0.00 | 51 | 1004.8 |
| 20260830123010 | 77 | 220 | 13.0 | 0.0 | 0.00 | 0.00 | 0.00 | 51 | 1004.8 |
| 20260830121510 | 78 | 220 | 13.0 | 0.0 | 0.00 | 0.00 | 0.00 | 47 | 1004.6 |
| 20260830120009 | 78 | 220 | 15.0 | 0.0 | 0.00 | 0.00 | 0.00 | 47 | 1004.6 |
| 20260830114509 | 78 | 240 | 14.0 | 0.0 | 0.00 | 0.00 | 0.00 | 49 | 1004.6 |
| 20260830113010 | 78 | 240 | 14.0 | 0.0 | 0.00 | 0.00 | 0.00 | 49 | 1004.6 |
| 20260830111509 | 77 | 230 | 13.0 | 0.0 | 0.00 | 0.00 | 0.00 | 49 | 1004.5 |
| 20260830110009 | 77 | 230 | 13.0 | 0.0 | 0.00 | 0.00 | 0.00 | 49 | 1004.5 |
| 20260830104509 | 77 | 230 | 13.0 | 0.0 | 0.00 | 0.00 | 0.00 | 50 | 1004.5 |
| 20260830103009 | 77 | 250 | 12.0 | 0.0 | 0.00 | 0.00 | 0.00 | 50 | 1004.5 |
| 20260830101509 | 77 | 230 | 14.0 | 0.0 | 0.00 | 0.00 | 0.00 | 50 | 1004.7 |
| 20260830100009 | 77 | 230 | 14.0 | 0.0 | 0.00 | 0.00 | 0.00 | 50 | 1004.7 |
| 20260830094509 | 75 | 220 | 12.0 | 0.0 | 0.00 | 0.00 | 0.00 | 53 | 1004.6 |
| 20260830093009 | 75 | 220 | 12.0 | 0.0 | 0.00 | 0.00 | 0.00 | 53 | 1004.6 |
| 20260830091509 | 74 | 220 | 11.0 | 0.0 | 0.00 | 0.00 | 0.00 | 55 | 1004.6 |
| 20260830090009 | 74 | 220 | 11.0 | 0.0 | 0.00 | 0.00 | 0.00 | 55 | 1004.6 |
| 20260830084509 | 74 | 220 | 11.0 | 0.0 | 0.00 | 0.00 | 0.00 | 56 | 1004.6 |
| 20260830083010 | 74 | 220 | 11.0 | 0.0 | 0.00 | 0.00 | 0.00 | 56 | 1004.6 |